Wind_Speed
8 8 8 8 8 7 6 6 6 5 6 7 7 7 6 5 5 5 5 5 5 5 5 5 5 6 7 7 7 6 6 7 6 7 7 7 7 7 7 7 7 7 7
8 7 8 8 7 6 5 6 5 5 6 7 7 7 6 5 5 6 6 6 6 6 6 6 6 6 7 7 7 8 7 7 7 7 8 8 9 9 8 8 9 9 9
7 7 7 7 5 5 5 6 5 4 4 6 6 6 7 7 6 6 6 7 7 7 7 7 7 7 8 8 8 9 9 9 8 8 9 9 9 10 10 10 10 10 11
6 5 6 5 5 5 5 5 4 4 5 5 5 6 6 6 6 7 6 6 7 8 9 9 9 8 8 9 9 9 9 9 10 10 10 10 10 10 10 11 11 11 11
5 4 4 4 4 4 5 5 4 5 5 5 5 5 6 6 6 7 6 7 7 8 9 9 9 9 9 9 9 10 10 10 10 10 11 11 11 11 11 11 11 11 11
5 4 3 3 3 4 4 4 4 5 5 5 5 5 6 6 7 7 7 8 8 9 9 9 10 10 10 10 11 11 11 12 11 11 11 12 12 12 11 12 11 11 11
4 4 4 3 3 4 4 4 5 5 6 6 6 7 7 7 8 8 8 8 9 9 10 11 11 11 11 12 12 12 12 12 12 12 12 12 12 12 13 13 13 13 13
4 4 4 4 4 4 5 5 6 7 7 7 8 9 9 10 10 10 10 10 11 11 11 12 12 13 13 13 13 13 13 12 12 12 13 13 13 14 14 14 14 14 14
4 4 4 4 5 5 6 6 7 7 8 9 9 10 11 11 11 12 13 13 12 12 12 12 12 13 13 13 14 14 14 14 13 13 13 13 14 15 15 15 15 16 16
4 5 5 5 6 7 7 8 8 8 9 9 9 9 10 11 11 13 13 14 14 13 14 14 13 13 14 14 15 15 15 15 14 14 15 15 16 16 16 16 17 17 17
6 7 7 8 8 8 9 9 10 10 10 11 11 11 11 11 12 13 14 15 15 15 15 15 15 15 15 16 16 16 16 16 16 16 17 17 17 17 17 17 17 17 17
8 8 9 9 9 10 11 11 11 11 11 12 12 12 13 13 14 14 14 15 16 16 16 16 16 15 16 16 16 16 17 17 18 17 17 18 19 18 18 18 18 18 18
9 10 10 10 11 12 13 13 13 13 13 13 13 14 14 15 15 15 15 16 16 17 17 17 17 17 17 17 17 16 16 17 18 19 19 18 18 19 19 18 18 18 18
10 11 11 11 12 13 13 14 14 15 15 15 15 15 15 15 16 17 17 17 17 17 17 17 18 18 18 18 18 18 18 18 19 19 19 19 19 19 19 19 19 19 19
12 13 14 14 14 14 14 14 15 15 16 17 17 17 17 17 18 19 19 18 18 18 17 18 19 19 19 19 19 19 19 19 19 19 20 19 20 20 21 21 21 21 22
15 15 16 16 16 16 16 17 17 18 18 19 18 18 19 20 20 20 20 20 20 20 19 19 19 20 20 20 20 20 20 20 21 21 22 22 21 21 22 21 22 22 22
17 17 17 18 18 18 18 19 20 20 20 21 20 20 21 21 21 21 21 21 21 21 21 21 20 21 21 21 21 21 22 22 22 23 23 24 23 23 23 23 23 23 24
19 19 18 19 19 19 20 20 21 21 21 21 22 22 22 23 23 23 23 22 22 22 22 22 22 22 22 22 23 23 24 24 25 25 25 25 25 25 24 24 24 25 25
21 21 20 20 20 21 21 22 22 22 22 22 23 23 24 24 24 24 24 24 24 24 24 24 24 24 24 24 25 25 25 25 26 26 26 26 26 26 25 25 26 26 26
21 22 21 22 22 23 23 23 24 24 23 24 25 25 25 26 26 26 26 26 26 26 26 26 26 27 27 27 27 27 27 27 27 28 28 27 27 27 27 28 28 28 29
23 23 24 25 25 25 25 25 25 25 25 26 27 27 28 28 28 29 29 29 29 29 29 29 29 29 30 30 30 30 30 30 29 29 29 28 28 29 29 29 30 30 30
26 26 27 27 27 27 27 27 28 27 27 28 29 30 30 31 31 31 32 32 32 32 32 33 32 32 31 32 32 32 31 31 30 31 31 30 31 31 31 31 32 32 32
29 29 30 30 30 30 30 30 31 30 30 30 31 32 32 33 34 34 34 35 35 35 34 34 34 33 34 34 33 33 33 32 32 32 32 32 32 33 33 32 33 33 33
31 31 31 32 33 32 33 33 33 33 33 33 33 34 35 36 36 36 36 36 36 36 35 35 34 35 36 36 35 35 34 34 34 33 33 34 34 34 34 33 33 33 32
32 32 33 34 34 35 35 35 36 36 36 35 35 35 36 37 37 36 37 38 37 36 37 37 37 36 36 36 36 36 35 36 35 34 34 34 34 34 34 34 34 34 34
33 33 34 34 34 34 35 36 37 37 37 37 37 37 36 37 36 36 36 37 36 35 36 37 38 37 37 37 37 37 37 37 37 36 35 35 35 35 35 35 36 35 35
Wind_Direction
164 172 182 179 185 191 190 195 209 213 210 204 207 214 215 219 226 233 244 253 251 248 253 259 260 262 261 260 256 262 267 260 259 259 260 265 267 269 265 261 261 265 268
162 173 177 183 187 193 194 200 211 212 210 211 211 214 219 226 234 241 248 253 248 248 251 255 257 261 260 261 260 258 264 262 263 265 262 262 266 265 265 265 267 270 273
159 168 178 185 187 189 197 204 203 202 206 207 208 218 230 240 247 255 255 249 247 247 252 254 255 257 259 260 264 261 259 261 264 266 265 265 266 266 264 266 269 273 275
168 175 182 183 185 190 195 201 207 214 219 213 213 224 236 248 256 259 257 254 253 253 254 255 257 256 260 263 267 264 262 263 265 264 266 268 270 269 266 266 270 274 276
162 165 172 180 187 196 203 204 208 219 226 224 223 233 239 248 254 261 261 261 264 265 263 260 261 262 261 263 264 265 267 269 267 264 266 268 270 270 268 267 270 273 273
167 175 186 192 198 204 208 211 219 229 238 244 245 251 253 251 255 262 265 266 268 270 268 267 268 267 266 266 265 264 266 266 267 265 267 267 270 270 268 267 269 271 272
182 193 204 211 215 221 221 224 232 241 249 254 257 259 262 260 263 266 271 271 270 272 274 273 271 269 268 266 265 266 267 267 268 265 266 266 267 268 269 269 269 271 273
201 206 212 220 228 228 236 241 244 247 252 257 259 260 266 266 266 266 270 272 271 273 276 278 277 273 272 270 265 265 268 269 269 265 266 268 269 269 271 270 271 273 273
215 216 221 230 240 244 248 252 256 253 257 262 263 266 268 265 267 271 272 274 274 275 278 282 281 277 275 271 269 267 267 267 267 269 269 268 269 270 273 272 270 272 271
231 239 243 242 248 254 258 261 263 262 264 264 266 272 271 268 269 273 275 276 276 277 279 282 282 280 275 274 270 268 266 266 268 269 270 270 271 271 270 273 271 271 270
240 245 251 251 256 262 267 269 270 268 267 269 269 273 275 276 274 273 275 277 278 278 279 280 283 282 277 275 269 268 266 265 269 271 270 271 272 272 271 272 273 273 272
248 253 256 261 261 264 269 270 268 267 270 268 269 271 274 277 277 277 276 277 278 278 278 277 278 279 279 280 275 271 267 266 269 271 272 272 271 272 271 273 272 272 273
258 259 259 264 261 265 268 268 267 269 272 271 271 270 271 274 276 277 277 277 277 277 277 277 277 277 277 278 278 276 272 271 271 270 273 274 273 272 271 272 271 272 272
264 262 263 265 264 265 268 267 266 267 271 272 273 273 272 271 274 276 279 280 278 278 277 277 277 278 276 276 276 275 276 276 273 272 272 275 274 272 272 270 270 272 273
264 262 262 264 268 270 271 271 268 269 271 271 272 272 272 274 277 278 278 279 279 279 277 276 277 278 277 277 274 274 276 275 274 273 272 274 275 273 273 272 272 273 273
267 266 264 266 269 270 271 273 274 271 271 270 271 273 274 275 276 276 277 277 278 277 276 277 276 277 278 278 277 276 275 276 275 274 272 272 273 273 273 273 273 272 273
271 272 272 270 270 271 272 274 276 273 271 270 268 271 274 275 276 276 276 275 276 276 275 275 275 275 276 276 276 275 275 276 276 276 275 273 273 273 272 272 273 273 273
274 272 274 276 273 273 275 276 277 276 274 271 269 270 272 274 274 275 276 275 275 274 274 273 273 274 275 275 274 275 275 274 274 275 275 274 275 275 275 274 274 274 274
270 271 272 275 276 275 276 277 277 275 275 271 269 270 272 273 273 274 275 275 275 274 273 274 275 275 275 275 275 275 274 275 276 276 274 273 274 273 274 275 275 275 275
270 271 270 273 274 274 277 278 279 277 275 273 272 272 272 273 273 273 274 274 274 274 273 274 274 275 276 276 275 274 274 275 277 278 276 274 274 273 273 273 275 275 275
269 271 272 274 274 274 276 278 279 279 276 274 274 274 274 273 272 273 273 273 273 273 272 273 274 275 276 275 275 274 275 275 275 277 277 275 274 274 273 274 275 275 276
268 271 273 275 275 276 277 279 279 277 277 276 274 274 275 274 274 273 273 272 272 273 273 273 273 274 275 275 274 274 274 273 273 274 274 274 274 275 274 274 275 276 276
270 270 272 274 274 276 277 279 277 277 276 276 276 275 275 275 275 273 273 273 273 273 272 273 272 272 273 274 273 273 273 272 271 271 272 273 274 274 274 274 275 275 276
272 271 272 272 274 275 276 276 276 275 276 276 276 276 275 275 274 273 272 272 272 272 271 271 271 272 272 271 272 273 273 273 273 273 272 272 273 274 274 274 275 276 277
273 274 274 272 273 274 274 275 275 274 275 275 275 275 276 275 275 275 274 273 273 272 272 273 273 272 271 271 272 273 274 274 275 273 273 273 273 273 273 274 274 275 276
274 276 276 274 273 273 275 275 276 274 274 273 274 275 275 275 275 275 274 274 274 273 273 273 273 273 273 272 272 273 274 274 275 273 273 274 274 273 273 273 274 275 275
Height
5880 5881 5883 5883 5885 5887 5888 5890 5890 5891 5892 5893 5894 5896 5897 5897 5898 5899 5899 5900 5900 5901 5901 5901 5901 5901 5902 5902 5902 5903 5903 5903 5903 5904 5904 5904 5904 5904 5904 5905 5905 5905 5905
5881 5882 5883 5884 5886 5887 5888 5889 5890 5891 5892 5893 5894 5895 5896 5897 5897 5898 5898 5899 5899 5899 5900 5900 5900 5900 5901 5901 5901 5901 5902 5902 5902 5902 5902 5902 5903 5903 5903 5903 5903 5903 5903
5881 5882 5883 5885 5886 5887 5888 5889 5890 5891 5892 5893 5894 5895 5895 5896 5896 5897 5897 5897 5898 5898 5899 5899 5899 5899 5899 5900 5900 5900 5900 5901 5901 5901 5901 5901 5901 5901 5901 5901 5902 5901 5901
5882 5883 5884 5885 5886 5887 5888 5889 5890 5890 5891 5892 5893 5894 5894 5895 5895 5896 5896 5896 5897 5897 5897 5897 5898 5898 5898 5898 5898 5898 5898 5899 5899 5899 5899 5899 5899 5899 5899 5899 5899 5899 5899
5882 5883 5884 5884 5885 5886 5887 5888 5889 5890 5891 5891 5892 5893 5894 5894 5895 5895 5895 5895 5895 5895 5895 5896 5896 5896 5896 5896 5896 5896 5896 5897 5897 5897 5897 5896 5896 5896 5897 5897 5897 5897 5897
5883 5884 5884 5885 5885 5886 5887 5888 5889 5889 5890 5891 5891 5892 5892 5893 5893 5893 5893 5893 5894 5893 5894 5894 5894 5894 5894 5894 5894 5894 5894 5894 5894 5894 5894 5894 5894 5894 5894 5894 5894 5894 5894
5883 5884 5884 5885 5885 5886 5886 5887 5888 5889 5889 5890 5891 5891 5891 5891 5892 5892 5892 5892 5892 5892 5892 5892 5892 5892 5891 5891 5892 5892 5892 5892 5891 5892 5892 5892 5892 5892 5892 5892 5892 5892 5891
5883 5884 5884 5885 5885 5885 5886 5886 5887 5887 5888 5889 5889 5889 5889 5890 5890 5890 5890 5890 5890 5890 5890 5890 5889 5889 5889 5889 5889 5889 5889 5889 5889 5889 5889 5889 5889 5889 5889 5889 5889 5889 5888
5883 5883 5884 5884 5885 5885 5885 5886 5886 5886 5887 5887 5887 5887 5887 5887 5887 5888 5888 5888 5887 5887 5887 5887 5886 5886 5886 5886 5886 5886 5886 5886 5886 5886 5886 5886 5886 5885 5885 5885 5885 5885 5885
5882 5883 5883 5883 5884 5884 5884 5884 5884 5884 5885 5885 5885 5885 5885 5885 5885 5885 5885 5885 5885 5884 5884 5884 5883 5883 5883 5883 5883 5883 5883 5883 5883 5883 5883 5883 5882 5882 5882 5882 5882 5882 5881
5881 5882 5882 5882 5882 5882 5882 5882 5882 5882 5883 5883 5883 5882 5882 5882 5882 5883 5882 5882 5882 5881 5881 5881 5880 5880 5879 5879 5879 5879 5879 5879 5879 5879 5879 5879 5878 5878 5878 5878 5878 5877 5877
5879 5880 5880 5880 5880 5881 5881 5880 5880 5880 5880 5880 5880 5880 5880 5880 5880 5879 5879 5879 5878 5878 5878 5877 5877 5876 5876 5875 5875 5875 5875 5875 5875 5875 5875 5874 5874 5874 5874 5874 5873 5873 5873
5877 5877 5878 5878 5878 5878 5878 5878 5878 5878 5878 5877 5877 5877 5877 5877 5876 5876 5876 5875 5875 5875 5874 5873 5873 5872 5872 5872 5871 5871 5871 5871 5871 5871 5870 5870 5870 5869 5869 5869 5869 5868 5868
5875 5875 5875 5875 5875 5875 5875 5875 5875 5874 5874 5874 5874 5874 5873 5873 5873 5872 5872 5872 5871 5871 5871 5870 5869 5868 5868 5868 5867 5867 5867 5867 5866 5866 5866 5865 5865 5864 5864 5864 5864 5864 5863
5872 5872 5872 5872 5871 5871 5871 5871 5871 5870 5870 5870 5870 5870 5870 5869 5869 5868 5868 5867 5867 5867 5867 5866 5865 5864 5864 5863 5863 5863 5862 5862 5862 5862 5861 5861 5860 5860 5859 5859 5859 5859 5858
5868 5868 5867 5868 5867 5867 5867 5867 5866 5866 5866 5866 5866 5866 5865 5865 5865 5864 5863 5863 5862 5862 5862 5861 5861 5860 5859 5859 5858 5858 5858 5857 5857 5857 5856 5856 5855 5855 5854 5853 5853 5853 5852
5864 5863 5863 5863 5863 5862 5862 5862 5861 5861 5861 5861 5861 5861 5860 5860 5860 5859 5858 5858 5857 5857 5857 5856 5856 5855 5854 5854 5853 5853 5852 5852 5851 5851 5850 5850 5849 5849 5848 5847 5847 5846 5846
5859 5858 5858 5858 5858 5857 5857 5856 5856 5855 5855 5855 5855 5855 5854 5854 5854 5854 5853 5852 5852 5851 5851 5850 5850 5849 5849 5848 5848 5847 5847 5846 5845 5844 5844 5843 5843 5842 5842 5841 5840 5840 5839
5852 5852 5853 5853 5852 5852 5851 5850 5850 5849 5849 5849 5849 5848 5848 5848 5848 5847 5847 5846 5846 5845 5844 5844 5844 5843 5843 5842 5841 5841 5840 5839 5838 5838 5837 5836 5836 5835 5835 5834 5833 5833 5832
5847 5846 5846 5846 5846 5845 5844 5844 5843 5842 5842 5842 5842 5842 5841 5841 5841 5840 5840 5839 5839 5839 5838 5837 5837 5836 5836 5835 5834 5834 5833 5832 5832 5831 5830 5829 5828 5828 5827 5827 5826 5825 5825
5840 5840 5840 5839 5839 5838 5837 5837 5836 5835 5835 5835 5835 5835 5834 5834 5833 5833 5832 5832 5831 5831 5830 5830 5829 5829 5828 5827 5827 5826 5825 5825 5824 5823 5822 5822 5821 5820 5820 5819 5818 5818 5817
5833 5833 5833 5832 5831 5830 5830 5830 5829 5829 5828 5827 5827 5826 5826 5825 5825 5824 5824 5823 5823 5822 5822 5821 5821 5820 5820 5819 5818 5817 5817 5816 5816 5816 5814 5814 5813 5812 5812 5811 5810 5809 5808
5824 5824 5824 5824 5823 5823 5822 5821 5821 5820 5820 5819 5818 5818 5817 5816 5816 5815 5815 5814 5813 5813 5813 5812 5812 5811 5810 5810 5808 5808 5807 5807 5807 5806 5805 5805 5804 5803 5803 5802 5801 5800 5799
5816 5815 5815 5815 5814 5813 5812 5812 5811 5811 5811 5810 5809 5809 5808 5807 5806 5805 5804 5804 5803 5803 5802 5802 5802 5801 5800 5799 5799 5799 5798 5798 5798 5797 5796 5796 5795 5794 5793 5793 5792 5791 5790
5807 5806 5806 5805 5805 5804 5803 5802 5801 5801 5800 5800 5799 5798 5797 5796 5795 5794 5793 5793 5793 5792 5792 5791 5791 5790 5789 5789 5788 5788 5788 5788 5787 5787 5786 5786 5785 5784 5784 5783 5782 5782 5781
5797 5797 5796 5795 5795 5794 5793 5792 5791 5790 5789 5789 5788 5787 5787 5786 5785 5784 5783 5782 5782 5782 5781 5780 5780 5779 5778 5778 5778 5778 5777 5777 5776 5776 5776 5776 5775 5774 5774 5774 5773 5772 5771